Starlink 11555

operational
NORAD ID: 62915 Int'l Des: 2025-027 Owner: SPXS Country: US Constellation: starlink
LEOCIRCULAR

Starlink 11555について

説明を読み込み中...

リアルタイム位置

3D地球を読み込み中...

次回通過

高度履歴

Altitude vs Time

uPlot chart will show altitude changes over time

軌道要素

1 62915U 25027J 25350.67918537 .00203853 00000-0 15509-2 0 9993
2 62915 43.0013 128.2988 0001504 246.3253 113.7457 15.70880298 50134
Epoch: Dec 16, 2025 • Age: 27 hours

現在のステータス

高度 354.3 km
速度 7.70 km/s
衛星直下点 15.49°N, 85.78°W
打ち上げ日 Feb 8, 2025
運用期間 0.8 years
タイプ internet

技術仕様

分類 Payload
質量 960.00 kg
乾燥質量 910.00 kg
総質量 960.00 kg
長さ 0.30 m
直径 4.10 m
スパン 29.00 m
形状 Box + pan
製造者 SPXS
バスタイプ Starlink V2MD
フェーズステータス In Orbit
所有者/国 SPXS/US

大規模コンステレーション

Loading constellations...